Date,TemperatureHighF,TemperatureAvgF,TemperatureLowF,DewpointHighF,DewpointAvgF,DewpointLowF,HumidityHigh,HumidityAvg,HumidityLow,PressureMaxIn,PressureMinIn,WindSpeedMaxMPH,WindSpeedAvgMPH,GustSpeedMaxMPH,PrecipitationSumIn
2013-3-1,66.1,61.7,57.7,57.4,54.0,48.8,89,76,68,29.97,29.87,12,1,12,0.00
2013-3-2,68.8,57.2,48.4,50.3,46.0,42.8,88,67,48,30.01,29.92,20,2,22,0.01
2013-3-3,64.8,55.3,48.1,49.8,46.0,43.3,89,72,50,30.11,29.94,15,1,15,0.01
2013-3-4,68.2,53.8,42.2,47.1,42.3,36.3,94,68,33,30.19,30.08,16,1,16,0.00
2013-3-5,74.8,62.2,47.0,60.3,54.1,45.4,97,77,53,30.16,30.05,13,1,13,0.02
2013-3-6,79.2,64.9,51.5,67.0,54.8,36.5,96,72,37,30.08,29.93,18,1,18,0.00
2013-3-7,71.9,57.5,45.1,51.6,45.0,38.3,93,65,39,30.16,30.05,13,1,13,0.00
2013-3-8,77.1,63.3,50.4,56.8,52.2,45.5,96,71,38,30.17,30.06,13,0,13,0.00
2013-3-9,76.4,64.1,51.3,62.6,55.5,49.6,96,75,54,30.16,30.07,12,1,13,0.02
2013-3-10,73.9,66.8,57.6,62.5,58.1,54.2,93,74,60,30.13,30.02,13,2,18,0.00
2013-3-11,74.6,70.2,63.8,64.0,62.2,59.4,92,76,66,30.07,29.92,15,4,15,0.00
2013-3-12,83.0,72.0,61.1,70.7,66.2,59.4,96,83,62,29.98,29.88,13,1,15,0.02
2013-3-13,77.1,65.6,54.8,65.7,55.9,47.1,94,73,41,30.10,29.95,15,2,19,0.00
2013-3-14,73.6,60.9,51.8,53.6,47.5,38.9,93,65,29,30.18,30.06,15,2,16,0.00
2013-3-15,74.5,61.3,49.9,56.2,50.9,45.9,92,71,45,30.23,30.11,11,1,11,0.00
2013-3-16,73.8,63.1,50.5,61.9,54.7,49.4,97,76,54,30.16,30.05,12,2,12,0.02
2013-3-17,75.4,64.7,54.1,63.4,58.2,52.8,100,81,58,30.12,29.99,16,2,16,0.00
2013-3-18,78.5,69.9,60.1,70.1,65.7,58.1,96,87,72,30.05,29.93,14,2,15,0.09
2013-3-19,79.1,72.1,66.2,72.0,68.1,64.7,97,88,70,29.99,29.82,15,0,15,0.04
2013-3-20,87.9,72.3,61.7,71.8,65.6,60.8,98,82,47,29.95,29.77,10,0,13,0.01
2013-3-21,58.8,57.6,56.8,53.7,52.6,51.2,88,83,76,29.91,29.91,0,0,0,0.00
2013-3-22,75.0,67.3,55.0,69.2,62.4,52.7,95,85,68,29.97,29.86,16,3,16,0.00
2013-3-23,85.7,77.6,68.9,75.1,71.8,67.1,97,83,64,29.95,29.78,14,2,16,0.01
2013-3-24,89.1,79.6,72.4,76.0,73.2,70.3,96,82,61,29.86,29.67,20,3,22,0.00
2013-3-25,80.3,74.0,62.8,73.4,64.2,40.3,96,74,43,29.98,29.72,15,1,15,0.21
2013-3-26,69.4,60.3,50.4,50.0,43.4,36.1,82,55,35,30.19,29.97,20,4,20,0.02
2013-3-27,70.4,56.5,43.7,49.5,42.6,37.6,84,61,42,30.23,30.14,15,2,16,0.00
2013-3-28,75.5,60.8,47.1,53.9,47.2,36.8,92,65,27,30.24,30.12,11,1,14,0.00
2013-3-29,76.5,64.2,52.9,57.3,52.1,43.7,87,66,42,30.26,30.17,13,2,14,0.00
2013-3-30,74.3,64.7,53.7,59.7,54.8,49.8,95,73,45,30.23,30.13,14,2,14,0.00
2013-3-31,78.7,68.4,56.2,67.3,62.1,54.2,96,81,61,30.16,30.01,16,3,16,0.00